This demonstration page uses our WeatherBlox Daily Observations layout. Learn more.

Left ArrowRight Arrow

41.55636, -103.73856

Hourly Observations for December 29, 2020

Temp ( °F °C ) Dew Point ( °F °C ) Humidity (%) Winds ( mph kmh ) Pressure ( in mb ) Visibility ( mi km ) Precip ( " mm )
12:58 am 00:58 Mostly Cloudy with Light Snow 26 -3.6 22 -5.3 88 88 SSE 29 46 29.93 1014 4 6 0.01 0.25
1:58 am 01:58 Mostly Cloudy 25 -3.8 22 -5.7 87 87 SSE 21 33 29.94 1014 10 16 0.00 0.00
2:58 am 02:58 Cloudy 26 -3.6 22 -5.5 87 87 S 20 31 29.93 1014 10 16 0.00 0.00
3:58 am 03:58 Mostly Cloudy 25 -4 22 -5.6 89 89 SSE 38 61 29.78 1008 7 11 0.00 0.00
4:58 am 04:58 Mostly Cloudy 25 -3.7 22 -5.7 86 86 SSW 5 7 29.92 1013 10 16 0.00 0.00
5:58 am 05:58 Mostly Cloudy with Light Snow Showers 26 -3.4 22 -5.5 86 86 SW 6 9 29.93 1014 10 16 0.00 0.00
6:58 am 06:58 Mostly Cloudy 26 -3.4 22 -5.4 86 86 SSW 7 11 29.92 1013 10 16 0.00 0.00
7:58 am 07:58 Cloudy with Light Snow Showers 27 -3 24 -4.3 91 91 WSW 10 17 29.91 1013 2 4 0.00 0.00
8:58 am 08:58 Mostly Cloudy with Light Snow 27 -2.9 23 -4.8 87 87 WNW 20 31 29.94 1014 9 14 0.00 0.00
9:58 am 09:58 Mostly Cloudy 27 -3 24 -4.7 88 88 NW 21 33 29.96 1015 10 16 0.00 0.00
10:58 am 10:58 Mostly Sunny 29 -1.9 23 -5.2 78 78 NNW 21 33 29.95 1014 10 16 0.00 0.00
11:58 am 11:58 Mostly Cloudy 28 -2.1 20 -6.5 72 72 NW 21 33 29.96 1015 10 16 0.00 0.00
12:58 pm 12:58 Cloudy 28 -2.4 22 -5.8 78 78 NNW 22 35 29.95 1014 10 16 0.00 0.00
1:58 pm 13:58 Sunny 27 -2.8 17 -8.6 65 65 NW 25 41 29.97 1015 10 16 0.00 0.00
2:58 pm 14:58 Sunny 28 -2.1 16 -8.9 60 60 NW 29 46 30.01 1016 10 16 0.00 0.00
3:58 pm 15:58 Sunny 27 -3 17 -8.5 66 66 NNW 20 31 30.06 1018 10 16 0.00 0.00
4:58 pm 16:58 Clear 24 -4.7 16 -8.7 74 74 NW 17 28 30.10 1019 10 16 0.00 0.00
5:58 pm 17:58 Clear 22 -5.6 16 -8.9 78 78 NW 18 30 30.15 1021 10 16 0.00 0.00
6:58 pm 18:58 Clear 20 -6.5 14 -9.8 78 78 WNW 12 19 30.19 1022 10 16 0.00 0.00
7:58 pm 19:58 Clear 13 -10.4 10 -12.1 87 87 W 8 13 30.23 1024 10 16 0.00 0.00
8:58 pm 20:58 Clear 13 -10.5 10 -12.2 87 87 SSW 6 9 30.25 1024 10 16 0.00 0.00
9:58 pm 21:58 Clear 13 -10.3 10 -12.4 85 85 WSW 5 7 30.25 1024 10 16 0.00 0.00
10:58 pm 22:58 Clear 13 -10.5 8 -13.3 80 80 WSW 6 9 30.25 1024 10 16 0.00 0.00
11:58 pm 23:58 Clear 12 -11.2 7 -13.9 81 81 WSW 7 11 30.26 1025 10 16 0.00 0.00

Powered by AerisWeather